Location: Buckenweiler
(49.0667°N, 10.2500°E)
Time: 08:37:56
(UTC+00:00)

SeaSat 1 - Pass Details

Date: 18 January 2026
Orbit: 737 x 740 km, 108.0° (Epoch: 15 February)

Event Time Altitude Azimuth Distance (km) Brightness Sun altitude
Rises 05:27:24 0° 34° (NNE) 3,185 6.0 -15.7°
Reaches altitude 10° 05:29:47 10° 41° (NE) 2,257 5.3 -15.3°
Maximum altitude 05:34:28 44° 113° (ESE) 1,026 3.7 -14.6°
Drops below altitude 10° 05:39:06 10° 185° (S) 2,243 5.0 -13.8°
Sets 05:41:27 0° 192° (SSW) 3,161 5.7 -13.4°
